Regional Weather Roundup
Issued by NWS

Home | Current Version | Previous Version | Text Only | Print | Product List | Glossary On
Versions: 1 2 3 4 5 6 7 8 9 10 11 12 13 14 15 16 17 18 19 20 21 22 23 24 25 26 27 28 29 30 31 32 33 34 35 36 37 38 39 40 41 42 43 44 45 46 47 48 49 50
000
ASUS43 KDTX 070110
RWRMI
MICHIGAN HOURLY REGIONAL WEATHER ROUNDUP
NATIONAL WEATHER SERVICE DETROIT/PONTIAC MI
800 PM EST SAT FEB 06 2016

NOTE: "FAIR" INDICATES FEW OR NO CLOUDS BELOW 12,000 FEET WITH NO
SIGNIFICANT WEATHER AND/OR OBSTRUCTION TO VISIBILITY.

MIZ047>049-052>055-059>063-066>070-074>076-081>083-070200-
SOUTHEAST LOWER MICHIGAN

CITY           SKY/WX    TMP DP  RH WIND       PRES   REMARKS
ADRIAN         PTCLDY    31  23  72 SW7       30.19R WCI  24
ALMA           CLOUDY    33  28  83 SW7       30.14F WCI  27
ANN ARBOR      CLOUDY    33  23  66 SW6       30.17S WCI  28
BAD AXE        CLOUDY    33  24  70 SW12      30.14R WCI  24
CARO           CLOUDY    32  23  68 SW7       30.15R WCI  26
DETROIT CITY   PTCLDY    35  23  61 SW12      30.18R WCI  27
DETROIT        MOCLDY    33  24  69 S9        30.19S WCI  25
FLINT          CLOUDY    35  21  56 SW7       30.16S WCI  29
GROSSE ILE     PTCLDY    34  25  69 SW6       30.18S WCI  29
HILLSDALE      PTCLDY    32  22  65 CALM      30.16R
HOWELL         CLOUDY    32  21  63 SW3       30.16R

CITY           SKY/WX    TMP DP  RH WIND       PRES   REMARKS
JACKSON        CLOUDY    34  22  61 SW7       30.16S WCI  28
LAMBERTVILLE   CLEAR     32  23  69 SW5       30.20S WCI  27
LANSING        CLOUDY    33  22  63 SW5       30.16S WCI  29
LAPEER         CLOUDY    33  21  62 W8        30.16R WCI  26
MASON          CLOUDY    32  23  68 CALM      30.16R
MONROE         CLEAR     32  23  70 SW5       30.18F WCI  27
MT. CLEMENS    CLOUDY    35  25  65 SW9       30.16R WCI  28
PONTIAC        CLOUDY    33  19  56 W7        30.15S WCI  27
PORT HOPE        N/A     33  25  72 SW7       30.11S WCI  27
PORT HURON     PTCLDY    32  28  86 SW5       30.17R WCI  27
TRI CITIES     CLOUDY    34  26  72 SW10      30.14F WCI  26
MIDLAND        CLOUDY    33  25  73 SW8       30.13S WCI  26
TROY           CLOUDY    35  25  65 SW6       30.18S WCI  30
SAGINAW HB     CLOUDY    34  28  80 SW10      30.14S WCI  26
$$
MIZ043>046-050>051-056>058-064>065-071>073-077>080-070200-
SOUTHWEST LOWER MICHIGAN

CITY           SKY/WX    TMP DP  RH WIND       PRES   REMARKS
BATTLE CREEK   CLOUDY    33  25  72 SW3       30.16S
BENTON HARBOR  CLEAR     34  27  75 S5        30.15F WCI  30
BIG RAPIDS     CLOUDY    32  29  87 S5        30.09F WCI  27
COLDWATER      CLOUDY    33  27  78 SW5       30.16S WCI  29
FREMONT        CLOUDY    32  29  87 SW5       30.12S WCI  27
HOLLAND        CLOUDY    33  28  81 S3        30.15S
GRAND RAPIDS   CLOUDY    34  27  75 SW7       30.14F WCI  28
IONIA          CLOUDY    32  26  76 S6        30.14F WCI  27
KALAMAZOO      CLOUDY    34  26  72 SW6       30.16R WCI  29
LUDINGTON      CLOUDY    32  28  84 SW9       30.09F WCI  24
MARSHALL       CLOUDY    34  24  67 SW3       30.15S
MOUNT PLEASANT CLOUDY    33  26  76 SW8       30.11F WCI  26
MUSKEGON       CLOUDY    34  28  79 SW6       30.13F WCI  29
SOUTH HAVEN    CLOUDY    36  29  74 SW6       30.15F WCI  31
$$
MIZ016>042-070200-
NORTHERN LOWER MICHIGAN

CITY           SKY/WX    TMP DP  RH WIND       PRES   REMARKS
ALPENA         CLOUDY    30  23  75 SW5       30.08S WCI  25
BEAVER ISLAND  CLOUDY    31  26  82 SW10G18   30.01F WCI  22
BELLAIRE       CLOUDY    31  26  80 S6        30.07F WCI  25
CADILLAC       CLOUDY    29  26  86 SW9       30.05F WCI  21
CHARLEVOIX     CLOUDY    31  26  81 SW7       30.07S WCI  24
FRANKFORT      CLOUDY    33  27  80 SW8       30.06F WCI  26
GAYLORD        CLOUDY    28  23  81 SW9       30.02F WCI  19
GRAYLING       CLOUDY    29  24  81 S3        30.06F
HARBOR SPRINGS CLOUDY    30  25  81 SW8       30.04F WCI  22
HOUGHTON LAKE  CLOUDY    30  24  78 SW6       30.08S WCI  24
MANISTEE       CLOUDY    30  23  74 S6        30.09S WCI  24
OSCODA         CLOUDY    32  25  75 SW7       30.10S WCI  26
PELLSTON       CLOUDY    30  23  75 SW7       30.04F WCI  23
ROGERS CITY    CLOUDY    29  22  75 SW6       30.07F WCI  23
TRAVERSE CITY  CLOUDY    31  24  75 VRB5      30.05F WCI  26
$$
MIZ007>008-015-070200-
EASTERN UPPER MICHIGAN

CITY           SKY/WX    TMP DP  RH WIND       PRES   REMARKS
KINROSS        CLOUDY    27  25  93 CALM      30.01S
MACKINAC ISLAN CLOUDY    28  24  85 SW6       30.02S WCI  22
NEWBERRY       CLOUDY    27  22  84 S9        29.98F WCI  17
S. S. MARIE    CLOUDY    28  22  78 SW6       30.00F WCI  22
MUNISING         N/A     30  20  66 S12       29.95F WCI  20
$$
MIZ004>006-011>014-085-070200-
CENTRAL UPPER MICHIGAN

CITY           SKY/WX    TMP DP  RH WIND       PRES   REMARKS
MANISTIQUE     CLOUDY    29  24  82 SW9       29.99F WCI  20
ESCANABA       CLOUDY    30  23  74 SW9       29.99F WCI  22
MENOMINEE      CLOUDY    28  21  74 SW10      30.01S WCI  19
SAWYER-GWINN   CLOUDY    27  21  80 S10       29.92F WCI  17
$$
MIZ001>003-009>011-084-070200-
WESTERN UPPER MICHIGAN

CITY           SKY/WX    TMP DP  RH WIND       PRES   REMARKS
IRON MOUNTAIN  CLOUDY    29  20  69 S9        29.92F WCI  20
HOUGHTON       CLOUDY    28  20  71 E6        29.85F WCI  22
COPPER HARBOR    N/A     29  23  78 SW5       29.90F WCI  24
IRONWOOD       CLOUDY    34  21  60 S12G18    29.80S WCI  25
$$

ABBREVIATIONS USED IN REMARKS
   TC - TEMPERATURE IN CELSIUS
  WCI - WIND CHILL INDEX
   HX - HEAT INDEX
  VSB - VISIBILITY




USA.gov is the U.S. government's official web portal to all federal, state and local government web resources and services.